Satellite-Ground Cal/Val Site Overpasses Predictions

Prediction of Satellite NPP Overpassing Cal/Val Site: Antarctic Dome C

Ground Cal/Val Site Location: Latitude: -75.10, Longitude: 123.35; Satellite-Ground Site NADIR distance within 100 km.

Table of predicted overpasses for the next 14.0 days since TLE Epoch: 1/28/2023
Interval Starting Time Ending Time Minimum Distance Time Minimum Distance (km)
1 01/30/2023 14:56:30 01/30/2023 14:56:59 01/30/2023 14:56:44 24.00
2 01/31/2023 14:37:48 01/31/2023 14:38:04 01/31/2023 14:37:56 83.04
3 02/01/2023 07:39:20 02/01/2023 07:39:48 02/01/2023 07:39:34 32.48
4 02/02/2023 07:20:36 02/02/2023 07:20:54 02/02/2023 07:20:45 77.66
5 02/04/2023 15:02:51 02/04/2023 15:03:14 02/04/2023 15:03:03 60.78
6 02/05/2023 14:44:00 02/05/2023 14:44:26 02/05/2023 14:44:13 48.35
7 02/06/2023 07:45:42 02/06/2023 07:46:03 02/06/2023 07:45:52 67.46
8 02/07/2023 07:26:49 02/07/2023 07:27:16 02/07/2023 07:27:03 40.61
9 02/09/2023 15:09:18 02/09/2023 15:09:22 02/09/2023 15:09:20 98.24
